Location: Peach Mountain Observatory
(42.3967°N, 83.9367°W)
Time: 23:10:21
(UTC-05:00)

ISS - Visible Passes

Search period start: 06 December 2019 00:00
Search period end: 16 December 2019 00:00
Orbit: 411 x 421 km, 51.6° (Epoch: 07 December)

Date Brightness Start Highest point End Pass type
(mag) Time Alt. Az. Time Alt. Az. Time Alt. Az.
06 Dec -3.2 18:38:48 10° NW 18:41:54 39° NNE 18:41:54 39° NNE visible
07 Dec -2.7 17:50:25 10° NW 17:53:23 28° NNE 17:55:47 14° ENE visible
07 Dec -1.6 19:27:00 10° WNW 19:28:44 27° WNW 19:28:44 27° WNW visible
08 Dec -3.9 18:38:27 10° NW 18:41:49 89° SW 18:42:49 43° SE visible
09 Dec -3.7 17:50:00 10° NW 17:53:18 56° NNE 17:56:37 10° ESE visible
09 Dec -1.3 19:27:19 10° W 19:29:47 19° SW 19:30:11 19° SW visible
10 Dec -2.0 18:38:23 10° WNW 18:41:25 32° SW 18:44:27 10° SSE visible
11 Dec -3.0 17:49:41 10° WNW 17:52:59 56° SW 17:56:17 10° SE visible
12 Dec -0.4 18:39:24 10° WSW 18:40:46 12° SW 18:42:08 10° SSW visible
13 Dec -0.8 17:49:51 10° W 17:52:25 20° SW 17:54:59 10° S visible
